| time (UTC) | temp C | wind direction | speed KPH | gust KPH | rain 1hr cm | rain 24hr cm | rain mn cm | humidity % | barometer mb |
| 20260508090057 | 0 | 282 | 4.8 | 6.4 | 0.00 | 0.00 | 0.00 | 87 | 1005.2 |
| 20260508084555 | 0 | 296 | 1.6 | 6.4 | 0.00 | 0.00 | 0.00 | 87 | 1005.1 |
| 20260508083056 | 1 | 279 | 3.2 | 6.4 | 0.00 | 0.00 | 0.00 | 86 | 1005.3 |
| 20260508081619 | 1 | 279 | 1.6 | 4.8 | 0.00 | 0.00 | 0.00 | 87 | 1005.3 |
| 20260508080101 | 1 | 274 | 1.6 | 4.8 | 0.00 | 0.00 | 0.00 | 86 | 1005.3 |
| 20260508074601 | 1 | 277 | 1.6 | 4.8 | 0.00 | 0.03 | 0.00 | 85 | 1005.0 |
| 20260508073059 | 2 | 277 | 3.2 | 4.8 | 0.00 | 0.03 | 0.00 | 85 | 1004.9 |
| 20260508071600 | 2 | 277 | 0.0 | 1.6 | 0.00 | 0.03 | 0.00 | 83 | 1004.9 |
| 20260508070059 | 2 | 0 | 0.0 | 3.2 | 0.00 | 0.03 | 0.00 | 83 | 1004.9 |
| 20260508064558 | 2 | 0 | 1.6 | 3.2 | 0.00 | 0.08 | 0.00 | 84 | 1004.8 |
| 20260508063108 | 2 | 277 | 0.0 | 4.8 | 0.00 | 0.08 | 0.00 | 83 | 1005.0 |
| 20260508061559 | 2 | 277 | 1.6 | 3.2 | 0.00 | 0.08 | 0.00 | 82 | 1005.0 |
| 20260508060108 | 3 | 277 | 1.6 | 3.2 | 0.00 | 0.08 | 0.00 | 80 | 1005.1 |
| 20260508054558 | 3 | 0 | 0.0 | 3.2 | 0.00 | 0.51 | 0.00 | 78 | 1005.3 |
| 20260508053103 | 3 | 0 | 0.0 | 3.2 | 0.00 | 0.51 | 0.00 | 79 | 1005.3 |
| 20260508051558 | 3 | 277 | 1.6 | 4.8 | 0.00 | 0.51 | 0.00 | 78 | 1005.3 |
| 20260508050058 | 4 | 277 | 0.0 | 3.2 | 0.00 | 0.51 | 0.00 | 76 | 1005.4 |
| 20260508044600 | 4 | 0 | 0.0 | 3.2 | 0.00 | 0.53 | 0.00 | 73 | 1005.5 |
| 20260508043057 | 5 | 286 | 0.0 | 3.2 | 0.00 | 0.53 | 0.00 | 74 | 1005.3 |
| 20260508041557 | 5 | 287 | 1.6 | 3.2 | 0.00 | 0.53 | 0.00 | 69 | 1005.5 |
| 20260508034559 | 6 | 0 | 0.0 | 4.8 | 0.00 | 0.53 | 0.53 | 64 | 1005.6 |
| 20260508033057 | 6 | 306 | 0.0 | 8.0 | 0.00 | 0.53 | 0.53 | 67 | 1005.7 |
| 20260508031557 | 6 | 0 | 0.0 | 9.7 | 0.00 | 0.53 | 0.53 | 67 | 1005.6 |
| 20260508030100 | 7 | 304 | 1.6 | 4.8 | 0.00 | 0.53 | 0.53 | 66 | 1005.6 |
| 20260508024556 | 7 | 300 | 1.6 | 6.4 | 0.00 | 0.69 | 0.53 | 61 | 1005.6 |
| 20260508023055 | 8 | 288 | 1.6 | 11.3 | 0.00 | 0.69 | 0.53 | 55 | 1005.4 |
| 20260508021557 | 8 | 300 | 3.2 | 17.7 | 0.00 | 0.69 | 0.53 | 54 | 1005.5 |
| 20260508020103 | 9 | 269 | 3.2 | 12.9 | 0.00 | 0.69 | 0.53 | 52 | 1005.4 |
| 20260508014557 | 9 | 311 | 3.2 | 20.9 | 0.00 | 1.45 | 0.53 | 52 | 1005.4 |
| 20260508013055 | 10 | 320 | 6.4 | 20.9 | 0.00 | 1.45 | 0.53 | 51 | 1005.5 |
| 20260508011557 | 10 | 328 | 6.4 | 17.7 | 0.00 | 1.45 | 0.53 | 51 | 1005.5 |
| 20260508010056 | 10 | 247 | 8.0 | 20.9 | 0.00 | 1.45 | 0.53 | 51 | 1005.2 |
| 20260508004601 | 11 | 333 | 6.4 | 17.7 | 0.00 | 2.01 | 0.53 | 52 | 1005.2 |
| 20260508003105 | 11 | 317 | 4.8 | 19.3 | 0.00 | 2.01 | 0.53 | 55 | 1004.9 |
| 20260508001559 | 11 | 301 | 3.2 | 14.5 | 0.00 | 2.01 | 0.53 | 64 | 1004.7 |
| 20260508000059 | 11 | 275 | 3.2 | 8.0 | 0.00 | 2.01 | 0.53 | 72 | 1004.4 |
| 20260507234558 | 11 | 323 | 1.6 | 11.3 | 0.00 | 2.31 | 0.53 | 70 | 1004.1 |
| 20260507233059 | 12 | 297 | 1.6 | 6.4 | 0.00 | 2.31 | 0.53 | 69 | 1003.7 |
| 20260507231607 | 12 | 255 | 3.2 | 11.3 | 0.00 | 2.31 | 0.53 | 67 | 1003.4 |
| 20260507230105 | 12 | 219 | 4.8 | 11.3 | 0.00 | 2.31 | 0.53 | 67 | 1003.3 |
| 20260507224559 | 12 | 232 | 3.2 | 9.7 | 0.00 | 2.44 | 0.53 | 67 | 1003.1 |
| 20260507223056 | 12 | 274 | 1.6 | 11.3 | 0.00 | 2.44 | 0.53 | 67 | 1003.0 |
| 20260507221556 | 12 | 0 | 0.0 | 8.0 | 0.00 | 2.44 | 0.53 | 66 | 1002.9 |
| 20260507220055 | 12 | 0 | 1.6 | 6.4 | 0.00 | 2.44 | 0.53 | 66 | 1003.0 |
| 20260507214605 | 12 | 226 | 1.6 | 14.5 | 0.00 | 2.59 | 0.53 | 67 | 1003.0 |
| 20260507213103 | 12 | 180 | 1.6 | 11.3 | 0.00 | 2.59 | 0.53 | 65 | 1003.1 |
| 20260507211600 | 12 | 227 | 3.2 | 16.1 | 0.00 | 2.59 | 0.53 | 67 | 1003.0 |
| 20260507204557 | 13 | 148 | 8.0 | 16.1 | 0.00 | 2.59 | 0.53 | 65 | 1002.8 |
| 20260507203109 | 13 | 169 | 9.7 | 19.3 | 0.00 | 2.59 | 0.53 | 63 | 1002.7 |
| 20260507201609 | 13 | 173 | 9.7 | 19.3 | 0.00 | 2.59 | 0.53 | 61 | 1002.7 |
| 20260507200109 | 15 | 132 | 3.2 | 20.9 | 0.00 | 2.59 | 0.53 | 60 | 1002.8 |
| 20260507194556 | 15 | 292 | 11.3 | 37.0 | 0.00 | 2.59 | 0.53 | 57 | 1002.8 |
| 20260507193058 | 15 | 153 | 6.4 | 25.7 | 0.00 | 2.59 | 0.53 | 59 | 1002.8 |
| 20260507191602 | 16 | 172 | 6.4 | 29.0 | 0.00 | 2.59 | 0.53 | 59 | 1002.8 |
| 20260507190105 | 17 | 155 | 8.0 | 20.9 | 0.00 | 2.59 | 0.53 | 53 | 1002.8 |
| 20260507184600 | 17 | 279 | 4.8 | 17.7 | 0.00 | 2.59 | 0.53 | 58 | 1003.0 |
| 20260507183101 | 16 | 209 | 9.7 | 22.5 | 0.00 | 2.59 | 0.53 | 55 | 1003.0 |
| 20260507181601 | 17 | 233 | 11.3 | 20.9 | 0.00 | 2.59 | 0.53 | 54 | 1003.1 |
| 20260507180058 | 17 | 242 | 6.4 | 16.1 | 0.00 | 2.59 | 0.53 | 52 | 1003.1 |
| 20260507174557 | 17 | 263 | 11.3 | 19.3 | 0.00 | 2.59 | 0.53 | 50 | 1003.3 |
| 20260507173102 | 17 | 302 | 11.3 | 20.9 | 0.00 | 2.59 | 0.53 | 48 | 1003.1 |
| 20260507171555 | 16 | 276 | 4.8 | 16.1 | 0.00 | 2.59 | 0.53 | 54 | 1003.0 |
| 20260507170109 | 17 | 35 | 6.4 | 16.1 | 0.00 | 2.59 | 0.53 | 47 | 1003.2 |
| 20260507164603 | 17 | 329 | 4.8 | 20.9 | 0.00 | 2.59 | 0.53 | 50 | 1003.4 |
| 20260507163059 | 16 | 281 | 6.4 | 19.3 | 0.00 | 2.59 | 0.53 | 53 | 1003.5 |
| 20260507161601 | 15 | 360 | 4.8 | 16.1 | 0.00 | 2.59 | 0.53 | 54 | 1003.7 |
| 20260507160058 | 16 | 171 | 4.8 | 19.3 | 0.00 | 2.59 | 0.53 | 52 | 1003.8 |
| 20260507154600 | 14 | 194 | 6.4 | 14.5 | 0.00 | 2.59 | 0.53 | 55 | 1004.0 |
| 20260507153106 | 15 | 16 | 4.8 | 17.7 | 0.00 | 2.59 | 0.53 | 56 | 1004.1 |
| 20260507151556 | 15 | 333 | 8.0 | 17.7 | 0.00 | 2.59 | 0.53 | 57 | 1004.4 |
| 20260507150054 | 14 | 90 | 3.2 | 16.1 | 0.00 | 2.59 | 0.53 | 61 | 1004.5 |
| 20260507144555 | 14 | 238 | 0.0 | 14.5 | 0.00 | 2.59 | 0.53 | 64 | 1004.6 |
| 20260507143101 | 14 | 297 | 8.0 | 17.7 | 0.00 | 2.59 | 0.53 | 64 | 1004.8 |
| 20260507141557 | 13 | 292 | 4.8 | 14.5 | 0.00 | 2.59 | 0.53 | 69 | 1005.0 |
| 20260507140057 | 12 | 315 | 4.8 | 16.1 | 0.00 | 2.59 | 0.53 | 69 | 1005.1 |
| 20260507134603 | 12 | 248 | 3.2 | 12.9 | 0.00 | 2.59 | 0.53 | 72 | 1005.0 |
| 20260507133132 | 12 | 0 | 3.2 | 16.1 | 0.00 | 2.59 | 0.53 | 71 | 1005.2 |
| 20260507131557 | 12 | 310 | 3.2 | 14.5 | 0.00 | 2.59 | 0.53 | 76 | 1005.4 |
| 20260507130110 | 11 | 346 | 8.0 | 19.3 | 0.00 | 2.59 | 0.53 | 78 | 1005.1 |
| 20260507124559 | 10 | 282 | 4.8 | 20.9 | 0.00 | 2.59 | 0.53 | 82 | 1005.2 |
| 20260507123055 | 10 | 281 | 6.4 | 17.7 | 0.00 | 2.59 | 0.53 | 86 | 1004.7 |
| 20260507121611 | 9 | 275 | 3.2 | 14.5 | 0.00 | 2.59 | 0.53 | 87 | 1005.1 |
| 20260507120105 | 9 | 303 | 6.4 | 14.5 | 0.00 | 2.59 | 0.53 | 88 | 1005.1 |
| 20260507114635 | 8 | 281 | 6.4 | 14.5 | 0.00 | 2.59 | 0.53 | 91 | 1005.6 |
| 20260507113057 | 8 | 259 | 3.2 | 9.7 | 0.00 | 2.59 | 0.53 | 92 | 1005.8 |
| 20260507111603 | 7 | 295 | 3.2 | 14.5 | 0.00 | 2.59 | 0.53 | 91 | 1005.8 |
| 20260507110057 | 7 | 267 | 6.4 | 12.9 | 0.00 | 2.59 | 0.53 | 91 | 1005.6 |
| 20260507104556 | 7 | 263 | 4.8 | 16.1 | 0.00 | 2.59 | 0.53 | 92 | 1005.5 |
| 20260507103056 | 7 | 320 | 4.8 | 12.9 | 0.00 | 2.59 | 0.53 | 93 | 1004.8 |
| 20260507101604 | 7 | 273 | 4.8 | 14.5 | 0.00 | 2.59 | 0.53 | 92 | 1004.9 |
| 20260507094559 | 7 | 308 | 6.4 | 16.1 | 0.00 | 2.59 | 0.53 | 93 | 1004.7 |
| 20260507093055 | 7 | 323 | 4.8 | 12.9 | 0.00 | 2.59 | 0.53 | 94 | 1004.3 |
| 20260507091556 | 7 | 298 | 4.8 | 12.9 | 0.00 | 2.59 | 0.53 | 94 | 1005.2 |